| time (UTC) | temp F | wind direction | speed MPH | gust MPH | rain 1hr in | rain 24hr in | rain mn in | humidity % | barometer mb |
| 20260902210039 | 89 | 105 | 3.0 | 11.0 | 0.00 | 0.00 | 0.00 | 39 | 934.5 |
| 20260902204544 | 89 | 111 | 4.0 | 11.0 | 0.00 | 0.00 | 0.00 | 39 | 934.8 |
| 20260902203033 | 88 | 173 | 5.0 | 13.0 | 0.00 | 0.00 | 0.00 | 40 | 934.9 |
| 20260902201533 | 88 | 109 | 3.0 | 8.0 | 0.00 | 0.00 | 0.00 | 40 | 935.1 |
| 20260902200029 | 87 | 139 | 4.0 | 9.0 | 0.00 | 0.00 | 0.00 | 41 | 935.3 |
| 20260902194528 | 87 | 103 | 3.0 | 9.0 | 0.00 | 0.00 | 0.00 | 42 | 935.4 |
| 20260902193024 | 86 | 107 | 3.0 | 15.0 | 0.00 | 0.00 | 0.00 | 45 | 935.7 |
| 20260902191520 | 86 | 111 | 4.0 | 10.0 | 0.00 | 0.00 | 0.00 | 45 | 935.9 |
| 20260902190017 | 85 | 126 | 3.0 | 11.0 | 0.00 | 0.00 | 0.00 | 46 | 936.2 |
| 20260902184513 | 85 | 101 | 2.0 | 10.0 | 0.00 | 0.00 | 0.00 | 46 | 936.5 |
| 20260902183033 | 85 | 119 | 5.0 | 13.0 | 0.00 | 0.00 | 0.00 | 45 | 936.5 |
| 20260902181508 | 84 | 83 | 4.0 | 16.0 | 0.00 | 0.00 | 0.00 | 45 | 936.7 |
| 20260902180007 | 83 | 115 | 4.0 | 12.0 | 0.00 | 0.00 | 0.00 | 45 | 937.0 |
| 20260902174601 | 81 | 123 | 4.0 | 12.0 | 0.00 | 0.00 | 0.00 | 47 | 937.0 |
| 20260902173116 | 81 | 100 | 6.0 | 11.0 | 0.00 | 0.00 | 0.00 | 46 | 937.1 |
| 20260902171557 | 80 | 113 | 4.0 | 12.0 | 0.00 | 0.00 | 0.00 | 47 | 937.3 |
| 20260902170056 | 80 | 142 | 5.0 | 12.0 | 0.00 | 0.00 | 0.00 | 46 | 937.4 |
| 20260902164557 | 80 | 112 | 3.0 | 10.0 | 0.00 | 0.00 | 0.00 | 45 | 937.5 |
| 20260902163048 | 78 | 128 | 3.0 | 9.0 | 0.00 | 0.00 | 0.00 | 46 | 937.7 |
| 20260902161543 | 76 | 103 | 3.0 | 9.0 | 0.00 | 0.00 | 0.00 | 51 | 937.8 |
| 20260902160039 | 75 | 102 | 3.0 | 11.0 | 0.00 | 0.00 | 0.00 | 53 | 938.0 |
| 20260902154539 | 75 | 109 | 4.0 | 10.0 | 0.00 | 0.00 | 0.00 | 53 | 938.1 |
| 20260902153034 | 74 | 106 | 2.0 | 7.0 | 0.00 | 0.00 | 0.00 | 53 | 938.2 |
| 20260902151535 | 73 | 109 | 2.0 | 9.0 | 0.00 | 0.00 | 0.00 | 53 | 938.4 |
| 20260902150027 | 72 | 107 | 1.0 | 10.0 | 0.00 | 0.00 | 0.00 | 54 | 938.5 |
| 20260902144523 | 71 | 146 | 0.0 | 3.0 | 0.00 | 0.00 | 0.00 | 56 | 938.6 |
| 20260902143021 | 69 | 148 | 0.0 | 6.0 | 0.00 | 0.00 | 0.00 | 59 | 938.6 |
| 20260902141515 | 67 | 111 | 0.0 | 3.0 | 0.00 | 0.00 | 0.00 | 64 | 938.7 |
| 20260902140013 | 64 | 80 | 0.0 | 1.0 | 0.00 | 0.00 | 0.00 | 69 | 938.8 |
| 20260902134508 | 60 | 80 | 0.0 | 1.0 | 0.00 | 0.00 | 0.00 | 77 | 938.6 |
| 20260902133011 | 58 | 79 | 0.0 | 0.0 | 0.00 | 0.00 | 0.00 | 78 | 938.9 |
| 20260902131508 | 57 | 79 | 0.0 | 1.0 | 0.00 | 0.00 | 0.00 | 79 | 938.7 |
| 20260902130007 | 56 | 86 | 0.0 | 1.0 | 0.00 | 0.00 | 0.00 | 79 | 938.8 |
| 20260902124504 | 56 | 93 | 0.0 | 0.0 | 0.00 | 0.00 | 0.00 | 77 | 938.7 |
| 20260902123004 | 57 | 93 | 0.0 | 1.0 | 0.00 | 0.00 | 0.00 | 77 | 938.5 |
| 20260902121502 | 57 | 94 | 0.0 | 0.0 | 0.00 | 0.00 | 0.00 | 76 | 938.5 |
| 20260902120002 | 58 | 94 | 0.0 | 0.0 | 0.00 | 0.00 | 0.00 | 75 | 938.5 |
| 20260902114502 | 58 | 98 | 0.0 | 2.0 | 0.00 | 0.00 | 0.00 | 77 | 938.5 |
| 20260902113101 | 56 | 98 | 0.0 | 3.0 | 0.00 | 0.00 | 0.00 | 80 | 938.6 |
| 20260902111601 | 57 | 88 | 0.0 | 0.0 | 0.00 | 0.00 | 0.00 | 77 | 938.7 |
| 20260902104605 | 59 | 88 | 0.0 | 1.0 | 0.00 | 0.00 | 0.00 | 73 | 938.8 |
| 20260902103105 | 59 | 88 | 0.0 | 1.0 | 0.00 | 0.00 | 0.00 | 72 | 938.8 |
| 20260902101556 | 60 | 88 | 0.0 | 1.0 | 0.00 | 0.00 | 0.00 | 72 | 938.8 |
| 20260902100048 | 60 | 88 | 0.0 | 2.0 | 0.00 | 0.00 | 0.00 | 70 | 938.9 |
| 20260902094547 | 60 | 80 | 0.0 | 1.0 | 0.00 | 0.00 | 0.00 | 70 | 938.8 |
| 20260902093047 | 60 | 79 | 0.0 | 1.0 | 0.00 | 0.00 | 0.00 | 70 | 938.8 |
| 20260902091549 | 60 | 79 | 0.0 | 2.0 | 0.00 | 0.00 | 0.00 | 71 | 938.8 |
| 20260902090045 | 60 | 74 | 0.0 | 1.0 | 0.00 | 0.00 | 0.00 | 71 | 938.9 |
| 20260902084544 | 60 | 74 | 0.0 | 1.0 | 0.00 | 0.00 | 0.00 | 70 | 938.9 |
| 20260902083051 | 60 | 74 | 0.0 | 1.0 | 0.00 | 0.00 | 0.00 | 71 | 938.9 |
| 20260902081542 | 60 | 74 | 0.0 | 0.0 | 0.00 | 0.00 | 0.00 | 71 | 938.9 |
| 20260902080042 | 60 | 74 | 0.0 | 1.0 | 0.00 | 0.00 | 0.00 | 71 | 938.9 |
| 20260902074541 | 59 | 74 | 0.0 | 0.0 | 0.00 | 0.00 | 0.00 | 71 | 939.0 |
| 20260902073040 | 60 | 74 | 0.0 | 0.0 | 0.00 | 0.00 | 0.00 | 70 | 939.1 |
| 20260902071536 | 60 | 74 | 0.0 | 0.0 | 0.00 | 0.00 | 0.00 | 68 | 939.0 |
| 20260902070035 | 61 | 74 | 0.0 | 1.0 | 0.00 | 0.00 | 0.00 | 68 | 938.9 |
| 20260902064535 | 60 | 72 | 0.0 | 0.0 | 0.00 | 0.00 | 0.00 | 67 | 938.9 |
| 20260902063050 | 61 | 72 | 0.0 | 1.0 | 0.00 | 0.00 | 0.00 | 66 | 939.1 |
| 20260902061550 | 61 | 72 | 0.0 | 1.0 | 0.00 | 0.00 | 0.00 | 65 | 939.1 |
| 20260902060038 | 62 | 72 | 0.0 | 1.0 | 0.00 | 0.00 | 0.00 | 64 | 939.1 |
| 20260902054531 | 62 | 72 | 0.0 | 1.0 | 0.00 | 0.00 | 0.00 | 62 | 939.1 |
| 20260902053034 | 63 | 72 | 0.0 | 1.0 | 0.00 | 0.00 | 0.00 | 60 | 939.1 |
| 20260902051529 | 64 | 71 | 0.0 | 2.0 | 0.00 | 0.00 | 0.00 | 58 | 939.2 |
| 20260902050029 | 65 | 68 | 0.0 | 2.0 | 0.00 | 0.00 | 0.00 | 56 | 939.2 |
| 20260902044555 | 65 | 71 | 0.0 | 3.0 | 0.00 | 0.00 | 0.00 | 54 | 939.2 |
| 20260902043024 | 66 | 69 | 0.0 | 3.0 | 0.00 | 0.00 | 0.00 | 53 | 939.2 |
| 20260902041532 | 65 | 71 | 0.0 | 3.0 | 0.00 | 0.00 | 0.00 | 53 | 939.2 |
| 20260902040022 | 65 | 55 | 0.0 | 2.0 | 0.00 | 0.00 | 0.00 | 52 | 939.3 |
| 20260902034523 | 65 | 62 | 0.0 | 3.0 | 0.00 | 0.00 | 0.00 | 52 | 939.3 |
| 20260902033022 | 66 | 75 | 0.0 | 3.0 | 0.00 | 0.00 | 0.00 | 52 | 939.3 |
| 20260902031539 | 66 | 68 | 0.0 | 2.0 | 0.00 | 0.00 | 0.00 | 52 | 939.3 |
| 20260902030021 | 66 | 67 | 0.0 | 3.0 | 0.00 | 0.00 | 0.00 | 53 | 939.3 |
| 20260902024521 | 66 | 78 | 0.0 | 2.0 | 0.00 | 0.00 | 0.00 | 54 | 939.2 |
| 20260902023028 | 67 | 84 | 0.0 | 2.0 | 0.00 | 0.00 | 0.00 | 51 | 939.1 |
| 20260902021519 | 69 | 86 | 0.0 | 1.0 | 0.00 | 0.00 | 0.00 | 49 | 939.1 |
| 20260902020023 | 70 | 88 | 0.0 | 2.0 | 0.00 | 0.00 | 0.00 | 46 | 939.0 |
| 20260902014517 | 72 | 92 | 0.0 | 1.0 | 0.00 | 0.00 | 0.00 | 44 | 938.9 |
| 20260902013017 | 74 | 103 | 0.0 | 3.0 | 0.00 | 0.00 | 0.00 | 41 | 939.0 |
| 20260902011520 | 76 | 95 | 0.0 | 1.0 | 0.00 | 0.00 | 0.00 | 38 | 939.0 |
| 20260902010015 | 77 | 96 | 0.0 | 2.0 | 0.00 | 0.00 | 0.00 | 36 | 939.1 |
| 20260902004514 | 79 | 96 | 0.0 | 2.0 | 0.00 | 0.00 | 0.00 | 34 | 939.2 |
| 20260902003014 | 80 | 97 | 0.0 | 2.0 | 0.00 | 0.00 | 0.00 | 33 | 939.2 |
| 20260902001513 | 80 | 97 | 0.0 | 2.0 | 0.00 | 0.00 | 0.00 | 33 | 939.1 |
| 20260902000012 | 81 | 98 | 1.0 | 4.0 | 0.00 | 0.00 | 0.00 | 31 | 939.2 |
| 20260901234511 | 81 | 101 | 2.0 | 6.0 | 0.00 | 0.00 | 0.00 | 31 | 939.3 |
| 20260901233012 | 80 | 104 | 0.0 | 4.0 | 0.00 | 0.00 | 0.00 | 32 | 939.4 |
| 20260901231508 | 81 | 117 | 0.0 | 8.0 | 0.00 | 0.00 | 0.00 | 32 | 939.5 |
| 20260901230008 | 82 | 110 | 1.0 | 6.0 | 0.00 | 0.00 | 0.00 | 31 | 939.5 |
| 20260901224511 | 83 | 102 | 2.0 | 6.0 | 0.00 | 0.00 | 0.00 | 30 | 939.5 |
| 20260901223006 | 82 | 106 | 2.0 | 6.0 | 0.00 | 0.00 | 0.00 | 31 | 939.7 |
| 20260901221504 | 82 | 104 | 1.0 | 6.0 | 0.00 | 0.00 | 0.00 | 29 | 939.8 |
| 20260901220002 | 82 | 103 | 1.0 | 4.0 | 0.00 | 0.00 | 0.00 | 30 | 940.0 |
| 20260901214501 | 82 | 106 | 1.0 | 4.0 | 0.00 | 0.00 | 0.00 | 30 | 940.0 |
| 20260901213001 | 82 | 105 | 1.0 | 6.0 | 0.00 | 0.00 | 0.00 | 30 | 940.1 |
| 20260901211559 | 82 | 115 | 1.0 | 4.0 | 0.00 | 0.00 | 0.00 | 30 | 940.3 |